QPF
0.00 0.00 0.00 0.00 0.00 0.00 0.00 0.00 0.00 0.00 0.00 0.00 0.00 0.00 0.00 0.00 0.00 0.00 0.00 0.00 0.00 0.00
0.00 0.00 0.00 0.00 0.00 0.00 0.00 0.00 0.00 0.00 0.00 0.00 0.00 0.00 0.00 0.00 0.00 0.00 0.00 0.00 0.00 0.00
0.00 0.00 0.00 0.00 0.00 0.00 0.00 0.00 0.00 0.00 0.00 0.00 0.00 0.00 0.00 0.00 0.00 0.00 0.00 0.00 0.00 0.00
0.00 0.00 0.00 0.00 0.00 0.00 0.00 0.00 0.00 0.00 0.00 0.00 0.00 0.00 0.00 0.00 0.00 0.00 0.00 0.00 0.00 0.00
0.00 0.00 0.00 0.00 0.00 0.00 0.00 0.00 0.00 0.00 0.00 0.00 0.00 0.00 0.00 0.00 0.00 0.00 0.00 0.00 0.00 0.00
0.00 0.00 0.00 0.00 0.00 0.00 0.00 0.00 0.00 0.00 0.00 0.00 0.00 0.00 0.00 0.00 0.00 0.00 0.00 0.00 0.00 0.00
0.00 0.00 0.00 0.00 0.00 0.00 0.00 0.00 0.00 0.00 0.00 0.00 0.00 0.00 0.00 0.00 0.00 0.00 0.00 0.00 0.00 0.00
0.00 0.00 0.00 0.00 0.00 0.00 0.00 0.00 0.00 0.00 0.00 0.00 0.00 0.00 0.00 0.00 0.00 0.00 0.00 0.00 0.00 0.00
0.00 0.00 0.00 0.00 0.00 0.00 0.00 0.00 0.00 0.00 0.00 0.00 0.00 0.00 0.00 0.00 0.00 0.00 0.00 0.00 0.00 0.00
0.00 0.00 0.00 0.00 0.00 0.00 0.00 0.00 0.00 0.00 0.00 0.00 0.00 0.00 0.00 0.00 0.00 0.00 0.00 0.00 0.00 0.00
0.00 0.00 0.00 0.00 0.00 0.00 0.00 0.00 0.00 0.00 0.00 0.00 0.00 0.00 0.00 0.00 0.00 0.00 0.00 0.00 0.00 0.00
0.00 0.00 0.00 0.00 0.00 0.00 0.00 0.00 0.00 0.00 0.00 0.00 0.00 0.00 0.00 0.00 0.00 0.00 0.00 0.00 0.00 0.00
0.00 0.00 0.00 0.00 0.00 0.00 0.00 0.00 0.00 0.00 0.00 0.00 0.00 0.00 0.00 0.00 0.00 0.00 0.00 0.00 0.00 0.00
0.00 0.00 0.00 0.00 0.00 0.00 0.00 0.00 0.00 0.00 0.00 0.00 0.00 0.00 0.00 0.00 0.00 0.00 0.00 0.00 0.00 0.00
MSLP
1021.70 1021.49 1021.19 1020.97 1020.71 1020.59 1020.39 1020.34 1020.35 1020.80 1021.05 1021.33 1021.57 1021.79 1022.19 1022.40 1022.48 1022.64 1022.58 1022.63 1022.61 1022.53
1022.26 1022.11 1022.09 1021.93 1021.54 1021.23 1021.09 1020.71 1020.48 1020.71 1020.87 1021.16 1021.45 1021.68 1021.94 1022.25 1022.47 1022.65 1022.74 1022.82 1022.77 1022.75
1023.21 1022.91 1022.69 1022.52 1022.42 1022.28 1021.94 1021.44 1020.96 1020.98 1020.72 1020.83 1021.06 1021.39 1021.73 1022.06 1022.36 1022.55 1022.75 1022.92 1022.84 1022.66
1024.09 1023.86 1023.60 1023.27 1023.05 1022.86 1022.69 1022.54 1022.08 1021.60 1021.24 1021.11 1021.20 1021.30 1021.67 1021.92 1021.98 1022.36 1022.64 1022.93 1022.77 1022.75
1024.60 1024.55 1024.44 1024.29 1023.88 1023.44 1023.10 1022.90 1022.40 1021.87 1021.51 1021.40 1021.32 1021.33 1021.49 1021.80 1022.05 1022.21 1022.37 1022.59 1022.67 1022.82
1024.93 1024.97 1025.11 1025.07 1024.88 1024.35 1023.93 1023.58 1022.99 1022.55 1022.27 1022.02 1021.83 1021.53 1021.41 1021.56 1021.75 1022.02 1022.09 1022.45 1022.51 1022.61
1025.22 1025.24 1025.24 1025.20 1025.10 1024.94 1024.57 1024.22 1023.71 1023.28 1022.91 1022.46 1022.05 1021.86 1021.73 1021.70 1021.64 1021.77 1022.05 1022.33 1022.32 1022.52
1025.26 1025.40 1025.45 1025.43 1025.32 1025.16 1024.98 1024.64 1024.29 1024.00 1023.55 1023.00 1022.47 1021.99 1021.82 1021.73 1021.65 1021.71 1021.84 1021.94 1022.22 1022.52
1025.34 1025.49 1025.49 1025.44 1025.34 1025.14 1024.87 1024.64 1024.36 1023.97 1023.68 1023.32 1022.95 1022.48 1022.19 1022.04 1021.95 1021.90 1022.01 1022.20 1022.26 1022.46
1025.33 1025.35 1025.32 1025.27 1025.23 1025.07 1024.79 1024.52 1024.20 1023.79 1023.53 1023.31 1022.99 1022.62 1022.32 1022.10 1022.03 1022.02 1022.10 1022.26 1022.35 1022.44
1025.55 1025.56 1025.47 1025.29 1025.04 1024.83 1024.56 1024.32 1024.07 1023.73 1023.41 1023.15 1022.80 1022.42 1022.10 1021.90 1021.89 1021.87 1021.89 1022.07 1022.15 1022.25
1025.50 1025.30 1025.24 1025.47 1025.11 1024.61 1024.33 1024.05 1023.87 1023.69 1023.39 1023.08 1022.64 1022.20 1021.84 1021.85 1021.81 1021.74 1021.71 1021.86 1021.99 1021.97
1025.28 1025.04 1024.96 1024.57 1024.59 1024.27 1024.11 1023.87 1023.65 1023.47 1023.31 1023.01 1022.57 1022.23 1021.92 1021.70 1021.68 1021.74 1021.71 1021.67 1021.74 1021.71
1025.19 1024.72 1024.31 1024.05 1023.92 1023.81 1023.84 1023.72 1023.53 1023.32 1022.99 1022.81 1022.45 1022.07 1021.88 1021.63 1021.43 1021.67 1021.63 1021.56 1021.57 1021.40
Thickness
5451 5455 5460 5466 5472 5478 5484 5487 5490 5492 5494 5496 5496 5497 5497 5499 5501 5504 5508 5512 5515 5518
5438 5441 5444 5447 5454 5461 5466 5472 5479 5481 5484 5487 5488 5489 5490 5490 5492 5495 5498 5501 5505 5509
5420 5426 5430 5434 5438 5442 5448 5456 5463 5467 5474 5478 5482 5483 5483 5483 5484 5486 5489 5491 5496 5501
5403 5408 5413 5419 5424 5429 5434 5439 5445 5452 5459 5465 5470 5473 5475 5476 5479 5478 5480 5482 5486 5491
5390 5394 5398 5401 5408 5416 5422 5427 5434 5441 5447 5452 5458 5462 5465 5467 5469 5471 5473 5475 5478 5481
5377 5380 5382 5386 5391 5398 5405 5412 5420 5427 5432 5437 5442 5449 5456 5459 5462 5464 5466 5466 5470 5472
5363 5367 5371 5375 5379 5383 5389 5396 5404 5411 5417 5424 5431 5436 5441 5446 5451 5455 5457 5458 5462 5464
5349 5353 5356 5360 5366 5371 5376 5382 5388 5395 5401 5409 5417 5425 5431 5436 5440 5444 5447 5450 5453 5454
5333 5336 5340 5345 5351 5357 5364 5370 5376 5382 5388 5395 5401 5408 5415 5422 5428 5432 5434 5437 5441 5444
5317 5322 5326 5332 5336 5341 5349 5356 5362 5370 5377 5382 5389 5396 5403 5410 5415 5420 5424 5426 5429 5433
5300 5306 5311 5317 5323 5329 5337 5342 5348 5356 5363 5370 5378 5386 5393 5401 5407 5412 5416 5418 5422 5425
5285 5292 5295 5301 5307 5315 5323 5330 5335 5341 5348 5354 5363 5374 5383 5389 5395 5401 5407 5411 5414 5418
5270 5276 5282 5288 5292 5300 5306 5314 5321 5327 5333 5339 5347 5357 5367 5377 5383 5389 5396 5402 5406 5410
5252 5260 5267 5274 5280 5285 5289 5296 5301 5310 5318 5324 5332 5340 5350 5361 5370 5375 5383 5389 5395 5403